When you browse on this site, cookies collect data to enhance your experience and personalize the content and advertising you see.
Visit our Privacy Policy to learn more. By continuing to use the site, you agree to this use of cookies and data.
  • In Hungary
  • List of Countries
  • For 7 days
  • Water Temperature
  • Weather Map
  • News
  • Weather Widgets
  • user-avatar
    Login

    Hourly Weather Zybunovo

    Today, 22 January, Wednesday

    Time Temperature Precipitation Wind Pressure Humidity
    00:00 -3°C° 0 mm 6 mps 734 mmHg 75%
    01:00 -3°C° 0 mm 6 mps 734 mmHg 77%
    02:00 -2°C° 0 mm 5 mps 733 mmHg 79%
    03:00 -2°C° 0 mm 5 mps 732 mmHg 81%
    04:00 -3°C° 0 mm 4 mps 732 mmHg 83%
    05:00 -3°C° 0 mm 4 mps 731 mmHg 85%
    06:00 -3°C° 0 mm 4 mps 730 mmHg 86%
    07:00 -3°C° 0 mm 4 mps 730 mmHg 86%
    08:00 -3°C° 0 mm 4 mps 730 mmHg 86%
    09:00 -3°C° 0.2 mm 4 mps 729 mmHg 86%
    10:00 -2°C° 0.2 mm 4 mps 729 mmHg 86%
    11:00 -2°C° 0.2 mm 4 mps 728 mmHg 86%
    12:00 -2°C° 0.7 mm 4 mps 729 mmHg 83%
    13:00 -2°C° 0.7 mm 5 mps 729 mmHg 79%
    14:00 -2°C° 0.7 mm 5 mps 729 mmHg 75%
    15:00 -4°C° 0 mm 5 mps 729 mmHg 77%
    16:00 -5°C° 0 mm 5 mps 730 mmHg 79%
    17:00 -5°C° 0 mm 4 mps 730 mmHg 81%
    18:00 -5°C° 0 mm 4 mps 731 mmHg 82%
    19:00 -5°C° 0 mm 4 mps 732 mmHg 82%
    20:00 -5°C° 0 mm 4 mps 732 mmHg 83%
    21:00 -6°C° 0.1 mm 5 mps 733 mmHg 84%
    22:00 -6°C° 0.1 mm 5 mps 733 mmHg 85%
    23:00 -6°C° 0.1 mm 6 mps 733 mmHg 85%

    Tomorrow, 23 January, Thursday

    Time Temperature Precipitation Wind Pressure Humidity
    00:00 -8°C° 0.1 mm 6 mps 734 mmHg 81%
    01:00 -8°C° 0.1 mm 6 mps 735 mmHg 77%
    02:00 -9°C° 0.1 mm 6 mps 736 mmHg 72%
    03:00 -9°C° 0 mm 6 mps 736 mmHg 73%
    04:00 -8°C° 0 mm 5 mps 737 mmHg 74%
    05:00 -10°C° 0 mm 5 mps 737 mmHg 76%
    06:00 -10°C° 0 mm 5 mps 737 mmHg 72%
    07:00 -10°C° 0 mm 5 mps 738 mmHg 68%
    08:00 -9°C° 0 mm 4 mps 739 mmHg 64%
    09:00 -8°C° 0.1 mm 5 mps 739 mmHg 66%
    10:00 -8°C° 0.1 mm 5 mps 739 mmHg 67%
    11:00 -7°C° 0.1 mm 5 mps 739 mmHg 69%
    12:00 -8°C° 0 mm 6 mps 739 mmHg 70%
    13:00 -8°C° 0 mm 6 mps 739 mmHg 71%
    14:00 -6°C° 0 mm 6 mps 739 mmHg 72%
    15:00 -8°C° 0 mm 6 mps 740 mmHg 70%
    16:00 -7°C° 0 mm 5 mps 740 mmHg 68%
    17:00 -8°C° 0 mm 4 mps 740 mmHg 66%
    18:00 -8°C° 0 mm 4 mps 741 mmHg 69%
    19:00 -8°C° 0 mm 3 mps 741 mmHg 71%
    20:00 -7°C° 0 mm 2 mps 742 mmHg 73%
    21:00 -7°C° 0 mm 2 mps 742 mmHg 74%
    22:00 -7°C° 0 mm 2 mps 741 mmHg 74%
    23:00 -7°C° 0 mm 2 mps 741 mmHg 74%

    Day after tomorrow, 24 January, Friday

    Time Temperature Precipitation Wind Pressure Humidity
    00:00 -7°C° 0 mm 2 mps 741 mmHg 76%
    01:00 -6°C° 0 mm 2 mps 741 mmHg 77%
    02:00 -6°C° 0 mm 2 mps 740 mmHg 78%
    03:00 -6°C° 0 mm 3 mps 739 mmHg 82%
    04:00 -5°C° 0 mm 3 mps 738 mmHg 85%
    05:00 -4°C° 0 mm 4 mps 737 mmHg 89%
    06:00 -4°C° 0.2 mm 4 mps 737 mmHg 91%
    07:00 -4°C° 0.2 mm 4 mps 736 mmHg 93%
    08:00 -4°C° 0.2 mm 4 mps 735 mmHg 95%
    09:00 -3°C° 0.6 mm 4 mps 734 mmHg 95%
    10:00 -3°C° 0.6 mm 4 mps 734 mmHg 96%
    11:00 -2°C° 0.6 mm 4 mps 733 mmHg 96%
    12:00 -1°C° 0.2 mm 4 mps 733 mmHg 96%
    13:00 0°C° 0.2 mm 4 mps 732 mmHg 96%
    14:00 0°C° 0.2 mm 4 mps 732 mmHg 96%
    15:00 0°C° 0 mm 4 mps 732 mmHg 93%
    16:00 0°C° 0 mm 4 mps 732 mmHg 90%
    17:00 0°C° 0 mm 4 mps 732 mmHg 87%
    18:00 -1°C° 0 mm 4 mps 733 mmHg 87%
    19:00 -2°C° 0 mm 4 mps 733 mmHg 88%
    20:00 -3°C° 0 mm 4 mps 734 mmHg 89%
    21:00 -2°C° 0 mm 3 mps 734 mmHg 90%
    22:00 -2°C° 0 mm 3 mps 733 mmHg 91%
    23:00 -4°C° 0 mm 3 mps 733 mmHg 92%

    25 January, Saturday

    Time Temperature Precipitation Wind Pressure Humidity
    00:00 -4°C° 0 mm 3 mps 733 mmHg 92%
    01:00 -4°C° 0 mm 3 mps 733 mmHg 93%
    02:00 -4°C° 0 mm 3 mps 732 mmHg 93%
    03:00 -2°C° 0 mm 3 mps 732 mmHg 91%
    04:00 -2°C° 0 mm 4 mps 732 mmHg 90%
    05:00 -2°C° 0 mm 4 mps 732 mmHg 88%
    06:00 -2°C° 0 mm 4 mps 731 mmHg 88%
    07:00 -1°C° 0 mm 3 mps 731 mmHg 89%
    08:00 -2°C° 0 mm 3 mps 731 mmHg 89%
    09:00 -2°C° 0 mm 4 mps 731 mmHg 86%
    10:00 -2°C° 0 mm 4 mps 731 mmHg 84%
    11:00 -1°C° 0 mm 5 mps 730 mmHg 81%
    12:00 -1°C° 0 mm 5 mps 730 mmHg 78%
    13:00 -2°C° 0 mm 6 mps 729 mmHg 75%
    14:00 -2°C° 0 mm 6 mps 729 mmHg 71%
    15:00 -2°C° 0.2 mm 6 mps 729 mmHg 72%
    16:00 -3°C° 0.2 mm 7 mps 729 mmHg 72%
    17:00 -3°C° 0.2 mm 7 mps 729 mmHg 72%
    18:00 -4°C° 0 mm 7 mps 730 mmHg 74%
    19:00 -6°C° 0 mm 7 mps 731 mmHg 77%
    20:00 -5°C° 0 mm 6 mps 732 mmHg 80%
    21:00 -5°C° 0 mm 6 mps 732 mmHg 77%
    22:00 -5°C° 0 mm 6 mps 733 mmHg 74%
    23:00 -5°C° 0 mm 6 mps 733 mmHg 72%

    26 January, Sunday

    Time Temperature Precipitation Wind Pressure Humidity
    00:00 -6°C° 0 mm 6 mps 734 mmHg 73%
    01:00 -6°C° 0 mm 5 mps 734 mmHg 74%
    02:00 -6°C° 0 mm 5 mps 735 mmHg 75%
    03:00 -6°C° 0 mm 5 mps 736 mmHg 76%
    04:00 -6°C° 0 mm 5 mps 736 mmHg 77%
    05:00 -6°C° 0 mm 5 mps 737 mmHg 79%
    06:00 -7°C° 0 mm 4 mps 737 mmHg 80%
    07:00 -7°C° 0 mm 4 mps 738 mmHg 81%
    08:00 -7°C° 0 mm 4 mps 739 mmHg 82%
    09:00 -7°C° 0 mm 4 mps 740 mmHg 81%
    10:00 -5°C° 0 mm 4 mps 741 mmHg 79%
    11:00 -5°C° 0 mm 4 mps 741 mmHg 77%
    12:00 -5°C° 0 mm 3 mps 742 mmHg 77%
    13:00 -4°C° 0 mm 3 mps 742 mmHg 77%
    14:00 -3°C° 0 mm 2 mps 743 mmHg 77%
    15:00 -4°C° 0 mm 2 mps 743 mmHg 81%
    16:00 -3°C° 0 mm 1 mps 744 mmHg 84%
    17:00 -3°C° 0 mm 1 mps 744 mmHg 88%
    18:00 -4°C° 0 mm 1 mps 744 mmHg 89%
    19:00 -5°C° 0 mm 0 mps 745 mmHg 90%
    20:00 -5°C° 0 mm 0 mps 745 mmHg 91%
    21:00 -6°C° 0 mm 1 mps 745 mmHg 92%
    22:00 -6°C° 0 mm 1 mps 745 mmHg 92%
    23:00 -7°C° 0 mm 2 mps 746 mmHg 93%

    27 January, Monday

    Time Temperature Precipitation Wind Pressure Humidity
    00:00 -6°C° 0 mm 2 mps 746 mmHg 92%
    01:00 -7°C° 0 mm 3 mps 745 mmHg 91%
    02:00 -6°C° 0 mm 3 mps 745 mmHg 90%
    03:00 -6°C° 0.1 mm 3 mps 745 mmHg 91%
    04:00 -5°C° 0.1 mm 3 mps 745 mmHg 93%
    05:00 -5°C° 0.1 mm 4 mps 744 mmHg 94%
    06:00 -5°C° 0.3 mm 4 mps 744 mmHg 95%
    07:00 -4°C° 0.3 mm 4 mps 743 mmHg 95%
    08:00 -4°C° 0.3 mm 4 mps 743 mmHg 95%
    09:00 -3°C° 0.4 mm 4 mps 743 mmHg 95%
    10:00 -3°C° 0.4 mm 4 mps 743 mmHg 95%
    11:00 -2°C° 0.4 mm 4 mps 742 mmHg 95%
    12:00 -2°C° 0.3 mm 4 mps 742 mmHg 95%
    13:00 -2°C° 0.3 mm 4 mps 741 mmHg 95%
    14:00 -1°C° 0.3 mm 4 mps 741 mmHg 95%
    15:00 -1°C° 0 mm 4 mps 740 mmHg 93%
    16:00 -2°C° 0 mm 4 mps 740 mmHg 92%
    17:00 -2°C° 0 mm 4 mps 740 mmHg 90%
    18:00 -2°C° 0.1 mm 4 mps 739 mmHg 92%
    19:00 -2°C° 0.1 mm 4 mps 739 mmHg 94%
    20:00 -2°C° 0.1 mm 4 mps 738 mmHg 97%
    21:00 -2°C° 0.2 mm 4 mps 738 mmHg 96%
    22:00 -2°C° 0.2 mm 4 mps 738 mmHg 96%
    23:00 -1°C° 0.2 mm 3 mps 737 mmHg 96%
    Show more